Time,TemperatureF,DewpointF,PressureIn,WindDirection,WindDirectionDegrees,WindSpeedMPH,WindSpeedGustMPH,Humidity,HourlyPrecipIn,Conditions,Clouds,dailyrainin,SoftwareType,DateUTC
2013-04-21 00:04:00,42.6,27.5,28.72,SSE,158,0.0,0.0,55,0.00,,,0.00,WUHU216HW,2013-04-21 05:04:00,
2013-04-21 00:09:00,42.9,27.8,28.73,SE,135,0.0,0.0,55,0.00,,,0.00,WUHU216HW,2013-04-21 05:09:00,
2013-04-21 00:14:00,42.9,27.8,28.73,SSE,158,8.7,8.7,55,0.00,,,0.00,WUHU216HW,2013-04-21 05:14:00,
2013-04-21 00:19:00,42.9,27.8,28.72,SE,135,6.2,8.7,55,0.00,,,0.00,WUHU216HW,2013-04-21 05:19:00,
2013-04-21 00:24:00,42.9,27.8,28.72,SE,135,0.0,6.2,55,0.00,,,0.00,WUHU216HW,2013-04-21 05:24:00,
2013-04-21 00:29:00,42.9,27.8,28.72,SSE,158,8.5,8.5,55,0.00,,,0.00,WUHU216HW,2013-04-21 05:29:00,
2013-04-21 00:34:00,42.9,27.8,28.72,SSE,158,0.0,8.5,55,0.00,,,0.00,WUHU216HW,2013-04-21 05:34:00,
2013-04-21 00:39:00,42.9,27.8,28.73,SSE,158,0.0,0.0,55,0.00,,,0.00,WUHU216HW,2013-04-21 05:39:00,
2013-04-21 00:44:00,42.9,27.8,28.72,SE,135,0.0,0.0,55,0.00,,,0.00,WUHU216HW,2013-04-21 05:44:00,
2013-04-21 00:49:00,43.1,28.4,28.72,SSE,158,0.0,2.0,56,0.00,,,0.00,WUHU216HW,2013-04-21 05:49:00,
2013-04-21 00:54:00,43.1,28.4,28.72,SSE,158,0.0,2.2,56,0.00,,,0.00,WUHU216HW,2013-04-21 05:54:00,
2013-04-21 00:59:00,43.1,28.4,28.72,SSE,158,5.1,5.1,56,0.00,,,0.00,WUHU216HW,2013-04-21 05:59:00,
2013-04-21 01:05:00,43.1,28.4,28.72,SSE,158,5.3,5.3,56,0.00,,,0.00,WUHU216HW,2013-04-21 06:05:00,
2013-04-21 01:10:00,43.1,28.4,28.72,SSE,158,3.5,9.8,56,0.00,,,0.00,WUHU216HW,2013-04-21 06:10:00,
2013-04-21 01:15:00,43.1,28.4,28.71,SSE,158,3.3,9.8,56,0.00,,,0.00,WUHU216HW,2013-04-21 06:15:00,
2013-04-21 01:20:00,43.3,28.6,28.71,SSE,158,15.4,15.4,56,0.00,,,0.00,WUHU216HW,2013-04-21 06:20:00,
2013-04-21 01:25:00,43.3,28.6,28.71,SSE,158,11.4,15.4,56,0.00,,,0.00,WUHU216HW,2013-04-21 06:25:00,
2013-04-21 01:30:00,43.3,28.6,28.71,SSE,158,14.7,14.7,56,0.00,,,0.00,WUHU216HW,2013-04-21 06:30:00,
2013-04-21 01:35:00,43.3,28.6,28.70,SSE,158,11.1,14.7,56,0.00,,,0.00,WUHU216HW,2013-04-21 06:35:00,
2013-04-21 01:40:00,43.3,28.6,28.70,SSE,158,3.3,14.7,56,0.00,,,0.00,WUHU216HW,2013-04-21 06:40:00,
2013-04-21 01:45:00,43.3,28.6,28.70,SSE,158,7.1,7.1,56,0.00,,,0.00,WUHU216HW,2013-04-21 06:45:00,
2013-04-21 01:50:00,43.3,28.6,28.70,SE,135,6.0,7.1,56,0.00,,,0.00,WUHU216HW,2013-04-21 06:50:00,
2013-04-21 01:55:00,43.3,28.6,28.69,SSE,158,6.0,7.1,56,0.00,,,0.00,WUHU216HW,2013-04-21 06:55:00,
2013-04-21 02:00:00,43.3,28.6,28.70,SSE,158,6.4,13.8,56,0.00,,,0.00,WUHU216HW,2013-04-21 07:00:00,
2013-04-21 02:05:00,43.3,28.6,28.70,SSE,158,9.6,13.8,56,0.00,,,0.00,WUHU216HW,2013-04-21 07:05:00,
2013-04-21 02:10:00,43.3,28.6,28.70,South,180,8.2,15.8,56,0.00,,,0.00,WUHU216HW,2013-04-21 07:10:00,
2013-04-21 02:15:00,43.3,28.6,28.70,SSE,158,10.7,15.8,57,0.00,,,0.00,WUHU216HW,2013-04-21 07:15:00,
2013-04-21 02:20:00,43.3,29.0,28.70,SSE,158,6.7,10.9,57,0.00,,,0.00,WUHU216HW,2013-04-21 07:20:00,
2013-04-21 02:25:00,43.1,28.8,28.70,SSE,158,6.4,10.7,57,0.00,,,0.00,WUHU216HW,2013-04-21 07:25:00,
2013-04-21 02:30:00,43.1,28.8,28.70,SSE,158,6.7,9.3,57,0.00,,,0.00,WUHU216HW,2013-04-21 07:30:00,
2013-04-21 02:35:00,42.9,28.7,28.70,SSE,158,4.9,9.3,57,0.00,,,0.00,WUHU216HW,2013-04-21 07:35:00,
2013-04-21 02:40:00,42.9,28.7,28.70,SSE,158,8.2,8.2,57,0.00,,,0.00,WUHU216HW,2013-04-21 07:40:00,
2013-04-21 02:45:00,42.9,28.7,28.71,South,180,0.0,8.2,57,0.00,,,0.00,WUHU216HW,2013-04-21 07:45:00,
2013-04-21 02:50:00,42.9,28.7,28.71,South,180,0.0,0.6,57,0.00,,,0.00,WUHU216HW,2013-04-21 07:50:00,
2013-04-21 02:55:00,42.9,28.7,28.70,SSE,158,6.7,6.7,57,0.00,,,0.00,WUHU216HW,2013-04-21 07:55:00,
2013-04-21 03:01:00,42.9,28.7,28.69,SSE,158,8.7,8.7,57,0.00,,,0.00,WUHU216HW,2013-04-21 08:01:00,
2013-04-21 03:06:00,42.9,29.1,28.69,SSE,158,4.4,8.7,58,0.00,,,0.00,WUHU216HW,2013-04-21 08:06:00,
2013-04-21 03:11:00,42.9,29.1,28.68,SSE,158,8.2,9.6,58,0.00,,,0.00,WUHU216HW,2013-04-21 08:11:00,
2013-04-21 03:16:00,42.9,29.1,28.68,SSE,158,8.7,9.6,58,0.00,,,0.00,WUHU216HW,2013-04-21 08:16:00,
2013-04-21 03:21:00,42.9,29.1,28.68,SSE,158,10.0,10.0,58,0.00,,,0.00,WUHU216HW,2013-04-21 08:21:00,
2013-04-21 03:26:00,42.9,29.1,28.68,SSE,158,8.7,10.0,58,0.00,,,0.00,WUHU216HW,2013-04-21 08:26:00,
2013-04-21 03:31:00,42.9,29.1,28.68,SSE,158,13.8,13.8,58,0.00,,,0.00,WUHU216HW,2013-04-21 08:31:00,
2013-04-21 03:36:00,43.1,29.3,28.68,SSE,158,10.5,13.8,58,0.00,,,0.00,WUHU216HW,2013-04-21 08:36:00,
2013-04-21 03:41:00,43.3,29.4,28.68,SSE,158,6.2,11.8,58,0.00,,,0.00,WUHU216HW,2013-04-21 08:41:00,
2013-04-21 03:46:00,43.3,29.4,28.68,SSE,158,8.9,10.5,58,0.00,,,0.00,WUHU216HW,2013-04-21 08:46:00,
2013-04-21 03:51:00,43.3,29.4,28.68,SSE,158,2.0,11.4,58,0.00,,,0.00,WUHU216HW,2013-04-21 08:51:00,
2013-04-21 03:56:00,43.3,29.4,28.68,South,180,8.5,11.4,58,0.00,,,0.00,WUHU216HW,2013-04-21 08:56:00,
2013-04-21 04:01:00,43.5,29.6,28.68,SSE,158,4.6,10.9,58,0.00,,,0.00,WUHU216HW,2013-04-21 09:01:00,
2013-04-21 04:06:00,43.5,29.6,28.68,South,180,8.5,10.2,58,0.00,,,0.00,WUHU216HW,2013-04-21 09:06:00,
2013-04-21 04:11:00,43.5,29.6,28.67,ESE,113,5.5,10.7,58,0.00,,,0.00,WUHU216HW,2013-04-21 09:11:00,
2013-04-21 04:16:00,43.5,29.6,28.68,SSE,158,10.7,10.7,58,0.00,,,0.00,WUHU216HW,2013-04-21 09:16:00,
2013-04-21 04:21:00,43.5,30.1,28.68,South,180,11.8,11.8,59,0.00,,,0.00,WUHU216HW,2013-04-21 09:21:00,
2013-04-21 04:26:00,43.5,30.1,28.68,South,180,8.7,11.8,59,0.00,,,0.00,WUHU216HW,2013-04-21 09:26:00,
2013-04-21 04:31:00,43.5,30.1,28.68,South,180,10.2,12.0,59,0.00,,,0.00,WUHU216HW,2013-04-21 09:31:00,
2013-04-21 04:36:00,43.3,29.9,28.68,South,180,11.6,13.8,59,0.00,,,0.00,WUHU216HW,2013-04-21 09:36:00,
2013-04-21 04:41:00,43.3,29.9,28.68,South,180,10.7,13.8,59,0.00,,,0.00,WUHU216HW,2013-04-21 09:41:00,
2013-04-21 04:46:00,43.3,29.9,28.68,SSE,158,7.6,11.6,59,0.00,,,0.00,WUHU216HW,2013-04-21 09:46:00,
2013-04-21 04:51:00,43.3,29.9,28.68,SSE,158,10.5,13.6,59,0.00,,,0.00,WUHU216HW,2013-04-21 09:51:00,
2013-04-21 04:56:00,43.3,29.9,28.68,South,180,13.6,13.6,59,0.00,,,0.00,WUHU216HW,2013-04-21 09:56:00,
2013-04-21 05:01:00,43.3,29.9,28.68,South,180,7.6,13.6,59,0.00,,,0.00,WUHU216HW,2013-04-21 10:01:00,
2013-04-21 05:06:00,43.3,29.9,28.68,SSE,158,8.7,13.6,59,0.00,,,0.00,WUHU216HW,2013-04-21 10:06:00,
2013-04-21 05:11:00,43.5,30.1,28.67,South,180,12.5,13.4,59,0.00,,,0.00,WUHU216HW,2013-04-21 10:11:00,
2013-04-21 05:17:00,43.3,29.9,28.68,SSE,158,8.7,13.4,59,0.00,,,0.00,WUHU216HW,2013-04-21 10:17:00,
2013-04-21 05:22:00,43.3,29.9,28.68,SSE,158,14.3,14.3,59,0.00,,,0.00,WUHU216HW,2013-04-21 10:22:00,
2013-04-21 05:27:00,43.5,30.1,28.68,SSE,158,2.0,14.3,59,0.00,,,0.00,WUHU216HW,2013-04-21 10:27:00,
2013-04-21 05:32:00,43.3,29.9,28.68,SSE,158,7.3,9.1,59,0.00,,,0.00,WUHU216HW,2013-04-21 10:32:00,
2013-04-21 05:37:00,43.3,30.3,28.68,SSE,158,8.9,11.1,60,0.00,,,0.00,WUHU216HW,2013-04-21 10:37:00,
2013-04-21 05:42:00,43.1,30.2,28.68,SSE,158,6.9,11.1,60,0.00,,,0.00,WUHU216HW,2013-04-21 10:42:00,
2013-04-21 05:47:00,42.9,30.0,28.68,SSE,158,2.9,7.6,60,0.00,,,0.00,WUHU216HW,2013-04-21 10:47:00,
2013-04-21 05:52:00,42.6,29.6,28.68,SSE,158,8.9,9.6,60,0.00,,,0.00,WUHU216HW,2013-04-21 10:52:00,
2013-04-21 05:57:00,42.4,29.8,28.68,SSE,158,6.2,9.6,61,0.00,,,0.00,WUHU216HW,2013-04-21 10:57:00,
2013-04-21 06:02:00,42.2,29.7,28.68,SSE,158,9.1,9.1,61,0.00,,,0.00,WUHU216HW,2013-04-21 11:02:00,
2013-04-21 06:07:00,42.0,29.5,28.68,SSE,158,2.4,9.1,61,0.00,,,0.00,WUHU216HW,2013-04-21 11:07:00,
2013-04-21 06:12:00,42.0,29.9,28.68,SE,135,4.9,10.0,62,0.00,,,0.00,WUHU216HW,2013-04-21 11:12:00,
2013-04-21 06:17:00,41.9,29.8,28.68,SSE,158,11.8,11.8,62,0.00,,,0.00,WUHU216HW,2013-04-21 11:17:00,
2013-04-21 06:22:00,42.0,29.9,28.68,SSE,158,5.8,11.8,62,0.00,,,0.00,WUHU216HW,2013-04-21 11:22:00,
2013-04-21 06:27:00,42.0,29.9,28.68,SSE,158,7.1,13.8,62,0.00,,,0.00,WUHU216HW,2013-04-21 11:27:00,
2013-04-21 06:32:00,42.0,29.9,28.68,South,180,5.8,13.8,62,0.00,,,0.00,WUHU216HW,2013-04-21 11:32:00,
2013-04-21 06:37:00,42.0,29.9,28.68,SSE,158,9.1,12.3,62,0.00,,,0.00,WUHU216HW,2013-04-21 11:37:00,
2013-04-21 06:42:00,42.2,30.1,28.69,South,180,10.9,15.6,62,0.00,,,0.00,WUHU216HW,2013-04-21 11:42:00,
2013-04-21 06:47:00,42.4,30.2,28.69,South,180,13.1,15.6,62,0.00,,,0.00,WUHU216HW,2013-04-21 11:47:00,
2013-04-21 06:52:00,42.4,30.2,28.68,South,180,12.9,13.1,62,0.00,,,0.00,WUHU216HW,2013-04-21 11:52:00,
2013-04-21 06:57:00,42.6,30.8,28.69,South,180,8.9,13.1,63,0.00,,,0.00,WUHU216HW,2013-04-21 11:57:00,
2013-04-21 07:02:00,42.9,31.1,28.69,South,180,11.6,11.6,63,0.00,,,0.00,WUHU216HW,2013-04-21 12:02:00,
2013-04-21 07:07:00,42.9,31.1,28.69,South,180,9.1,11.6,63,0.00,,,0.00,WUHU216HW,2013-04-21 12:07:00,
2013-04-21 07:12:00,43.1,31.3,28.69,South,180,10.2,14.5,63,0.00,,,0.00,WUHU216HW,2013-04-21 12:12:00,
2013-04-21 07:17:00,43.3,31.5,28.69,South,180,9.6,14.5,63,0.00,,,0.00,WUHU216HW,2013-04-21 12:17:00,
2013-04-21 07:22:00,43.5,31.7,28.69,South,180,19.4,19.4,63,0.00,,,0.00,WUHU216HW,2013-04-21 12:22:00,
2013-04-21 07:27:00,43.7,31.8,28.69,SSE,158,9.3,19.4,63,0.00,,,0.00,WUHU216HW,2013-04-21 12:27:00,
2013-04-21 07:32:00,43.8,32.0,28.70,South,180,8.9,19.4,63,0.00,,,0.00,WUHU216HW,2013-04-21 12:32:00,
2013-04-21 07:38:00,44.0,32.2,28.70,South,180,12.7,18.1,63,0.00,,,0.00,WUHU216HW,2013-04-21 12:38:00,
2013-04-21 07:43:00,44.2,32.4,28.69,SSW,203,17.4,18.1,63,0.00,,,0.00,WUHU216HW,2013-04-21 12:43:00,
2013-04-21 07:48:00,44.4,32.5,28.70,South,180,9.6,17.4,63,0.00,,,0.00,WUHU216HW,2013-04-21 12:48:00,
2013-04-21 07:53:00,44.6,32.7,28.70,South,180,12.7,17.4,63,0.00,,,0.00,WUHU216HW,2013-04-21 12:53:00,
2013-04-21 07:58:00,44.7,32.9,28.70,South,180,12.0,17.6,63,0.00,,,0.00,WUHU216HW,2013-04-21 12:58:00,
2013-04-21 08:03:00,44.9,33.0,28.70,South,180,16.7,17.6,63,0.00,,,0.00,WUHU216HW,2013-04-21 13:03:00,
2013-04-21 08:08:00,45.1,33.2,28.70,South,180,9.1,16.7,63,0.00,,,0.00,WUHU216HW,2013-04-21 13:08:00,
2013-04-21 08:13:00,45.3,33.4,28.70,South,180,10.2,17.2,63,0.00,,,0.00,WUHU216HW,2013-04-21 13:13:00,
2013-04-21 08:18:00,45.5,33.6,28.70,SSW,203,18.7,18.7,63,0.00,,,0.00,WUHU216HW,2013-04-21 13:18:00,
2013-04-21 08:23:00,45.8,33.5,28.70,South,180,14.0,18.7,62,0.00,,,0.00,WUHU216HW,2013-04-21 13:23:00,
2013-04-21 08:28:00,46.2,33.8,28.70,SSW,203,10.7,16.1,62,0.00,,,0.00,WUHU216HW,2013-04-21 13:28:00,
2013-04-21 08:33:00,46.2,33.8,28.70,South,180,9.8,14.0,62,0.00,,,0.00,WUHU216HW,2013-04-21 13:33:00,
2013-04-21 08:38:00,46.5,34.2,28.70,South,180,13.4,13.4,62,0.00,,,0.00,WUHU216HW,2013-04-21 13:38:00,
2013-04-21 08:43:00,46.7,34.3,28.70,South,180,11.1,15.6,62,0.00,,,0.00,WUHU216HW,2013-04-21 13:43:00,
2013-04-21 08:48:00,46.9,34.5,28.71,SSW,203,12.3,15.6,62,0.00,,,0.00,WUHU216HW,2013-04-21 13:48:00,
2013-04-21 08:53:00,47.1,34.7,28.71,South,180,15.6,15.6,62,0.00,,,0.00,WUHU216HW,2013-04-21 13:53:00,
2013-04-21 08:59:00,47.3,34.9,28.71,South,180,12.0,15.6,62,0.00,,,0.00,WUHU216HW,2013-04-21 13:59:00,
2013-04-21 09:04:00,47.6,35.2,28.71,South,180,14.0,14.0,62,0.00,,,0.00,WUHU216HW,2013-04-21 14:04:00,
2013-04-21 09:09:00,48.0,35.6,28.71,South,180,15.6,15.6,62,0.00,,,0.00,WUHU216HW,2013-04-21 14:09:00,
2013-04-21 09:14:00,48.2,35.8,28.70,South,180,8.7,15.6,62,0.00,,,0.00,WUHU216HW,2013-04-21 14:14:00,
2013-04-21 09:19:00,48.3,35.9,28.70,South,180,9.1,10.0,62,0.00,,,0.00,WUHU216HW,2013-04-21 14:19:00,
2013-04-21 09:24:00,48.7,36.3,28.71,South,180,13.4,13.4,62,0.00,,,0.00,WUHU216HW,2013-04-21 14:24:00,
2013-04-21 09:29:00,48.9,36.4,28.71,South,180,11.6,14.7,62,0.00,,,0.00,WUHU216HW,2013-04-21 14:29:00,
2013-04-21 09:34:00,48.9,36.4,28.70,SSW,203,14.9,14.9,62,0.00,,,0.00,WUHU216HW,2013-04-21 14:34:00,
2013-04-21 09:39:00,49.1,36.6,28.70,South,180,12.9,14.9,62,0.00,,,0.00,WUHU216HW,2013-04-21 14:39:00,
2013-04-21 09:44:00,49.1,36.6,28.70,South,180,15.4,15.4,62,0.00,,,0.00,WUHU216HW,2013-04-21 14:44:00,
2013-04-21 09:49:00,49.6,37.1,28.70,South,180,14.3,17.0,62,0.00,,,0.00,WUHU216HW,2013-04-21 14:49:00,
2013-04-21 09:54:00,49.8,37.2,28.70,SSW,203,17.4,17.4,62,0.00,,,0.00,WUHU216HW,2013-04-21 14:54:00,
2013-04-21 09:59:00,50.5,37.9,28.70,SSW,203,15.6,17.4,62,0.00,,,0.00,WUHU216HW,2013-04-21 14:59:00,
2013-04-21 10:04:00,51.4,38.7,28.69,South,180,14.9,15.6,62,0.00,,,0.00,WUHU216HW,2013-04-21 15:04:00,
2013-04-21 10:09:00,51.6,38.5,28.69,SSW,203,16.3,16.3,61,0.00,,,0.00,WUHU216HW,2013-04-21 15:09:00,
2013-04-21 10:14:00,51.8,38.3,28.70,South,180,10.0,16.3,60,0.00,,,0.00,WUHU216HW,2013-04-21 15:14:00,
2013-04-21 10:19:00,51.9,38.4,28.69,South,180,17.6,17.6,60,0.00,,,0.00,WUHU216HW,2013-04-21 15:19:00,
2013-04-21 10:25:00,52.3,38.8,28.69,South,180,14.3,21.0,60,0.00,,,0.00,WUHU216HW,2013-04-21 15:25:00,
2013-04-21 10:30:00,52.7,39.2,28.69,South,180,13.8,21.0,60,0.00,,,0.00,WUHU216HW,2013-04-21 15:30:00,
2013-04-21 10:35:00,53.2,39.7,28.69,SSW,203,6.9,14.3,60,0.00,,,0.00,WUHU216HW,2013-04-21 15:35:00,
2013-04-21 10:40:00,53.9,40.2,28.69,South,180,14.3,14.3,60,0.00,,,0.00,WUHU216HW,2013-04-21 15:40:00,
2013-04-21 10:45:00,54.5,40.4,28.69,SSW,203,13.8,14.3,59,0.00,,,0.00,WUHU216HW,2013-04-21 15:45:00,
2013-04-21 10:50:00,55.2,40.6,28.69,SSW,203,11.8,14.3,58,0.00,,,0.00,WUHU216HW,2013-04-21 15:50:00,
2013-04-21 10:55:00,55.9,40.8,28.68,SW,225,10.7,16.3,57,0.00,,,0.00,WUHU216HW,2013-04-21 15:55:00,
2013-04-21 11:00:00,56.6,41.1,28.69,SSW,203,15.2,20.5,56,0.00,,,0.00,WUHU216HW,2013-04-21 16:00:00,
2013-04-21 11:05:00,57.5,41.9,28.68,SW,225,13.1,20.5,56,0.00,,,0.00,WUHU216HW,2013-04-21 16:05:00,
2013-04-21 11:10:00,58.8,41.7,28.68,SSW,203,12.9,15.2,53,0.00,,,0.00,WUHU216HW,2013-04-21 16:10:00,
2013-04-21 11:15:00,58.8,41.2,28.69,SW,225,10.2,17.4,52,0.00,,,0.00,WUHU216HW,2013-04-21 16:15:00,
2013-04-21 11:20:00,58.8,41.7,28.68,SSW,203,8.7,17.4,53,0.00,,,0.00,WUHU216HW,2013-04-21 16:20:00,
2013-04-21 11:25:00,58.8,41.2,28.68,SSW,203,11.1,14.0,52,0.00,,,0.00,WUHU216HW,2013-04-21 16:25:00,
2013-04-21 11:30:00,59.5,41.8,28.68,SW,225,18.3,18.3,52,0.00,,,0.00,WUHU216HW,2013-04-21 16:30:00,
2013-04-21 11:35:00,59.7,41.5,28.68,SSW,203,10.2,18.3,51,0.00,,,0.00,WUHU216HW,2013-04-21 16:35:00,
2013-04-21 11:40:00,60.4,41.9,28.68,South,180,9.3,18.3,51,0.00,,,0.00,WUHU216HW,2013-04-21 16:40:00,
2013-04-21 11:45:00,61.3,41.9,28.67,SW,225,16.1,17.2,49,0.00,,,0.00,WUHU216HW,2013-04-21 16:45:00,
2013-04-21 11:50:00,61.7,41.1,28.67,SW,225,13.4,17.2,47,0.00,,,0.00,WUHU216HW,2013-04-21 16:50:00,
2013-04-21 11:55:00,62.0,42.0,28.67,SW,225,16.7,17.4,48,0.00,,,0.00,WUHU216HW,2013-04-21 16:55:00,
2013-04-21 12:00:00,62.2,41.0,28.67,SW,225,19.0,25.7,46,0.00,,,0.00,WUHU216HW,2013-04-21 17:00:00,
2013-04-21 12:05:00,62.2,41.0,28.67,South,180,11.1,25.7,46,0.00,,,0.00,WUHU216HW,2013-04-21 17:05:00,
2013-04-21 12:10:00,62.4,41.2,28.67,SW,225,20.1,20.1,46,0.00,,,0.00,WUHU216HW,2013-04-21 17:10:00,
2013-04-21 12:15:00,63.1,41.3,28.66,SW,225,14.5,20.1,45,0.00,,,0.00,WUHU216HW,2013-04-21 17:15:00,
2013-04-21 12:20:00,63.6,41.2,28.66,SW,225,21.0,25.2,44,0.00,,,0.00,WUHU216HW,2013-04-21 17:20:00,
2013-04-21 12:25:00,64.0,40.3,28.66,SW,225,16.7,27.7,42,0.00,,,0.00,WUHU216HW,2013-04-21 17:25:00,
2013-04-21 12:31:00,65.1,42.5,28.66,WSW,248,20.5,27.7,44,0.00,,,0.00,WUHU216HW,2013-04-21 17:31:00,
2013-04-21 12:36:00,65.4,42.2,28.66,SW,225,22.3,22.3,43,0.00,,,0.00,WUHU216HW,2013-04-21 17:36:00,
2013-04-21 12:41:00,65.4,41.1,28.66,SW,225,21.0,25.7,41,0.00,,,0.00,WUHU216HW,2013-04-21 17:41:00,
2013-04-21 12:46:00,65.4,41.7,28.66,SSW,203,16.5,25.7,42,0.00,,,0.00,WUHU216HW,2013-04-21 17:46:00,
2013-04-21 12:51:00,65.3,42.1,28.65,WSW,248,18.1,23.4,43,0.00,,,0.00,WUHU216HW,2013-04-21 17:51:00,
2013-04-21 12:56:00,65.1,41.3,28.65,SW,225,18.1,19.0,42,0.00,,,0.00,WUHU216HW,2013-04-21 17:56:00,
2013-04-21 13:01:00,65.4,42.2,28.65,SW,225,17.4,18.5,43,0.00,,,0.00,WUHU216HW,2013-04-21 18:01:00,
2013-04-21 13:06:00,66.0,42.7,28.65,SW,225,14.9,18.1,43,0.00,,,0.00,WUHU216HW,2013-04-21 18:06:00,
2013-04-21 13:11:00,66.3,42.5,28.64,SW,225,18.7,18.7,42,0.00,,,0.00,WUHU216HW,2013-04-21 18:11:00,
2013-04-21 13:16:00,66.3,42.5,28.63,SW,225,17.6,21.2,42,0.00,,,0.00,WUHU216HW,2013-04-21 18:16:00,
2013-04-21 13:21:00,66.7,42.8,28.63,SSW,203,21.9,21.9,42,0.00,,,0.00,WUHU216HW,2013-04-21 18:21:00,
2013-04-21 13:26:00,66.9,43.0,28.63,SW,225,34.2,34.2,42,0.00,,,0.00,WUHU216HW,2013-04-21 18:26:00,
2013-04-21 13:31:00,67.2,43.3,28.63,SW,225,12.0,34.2,42,0.00,,,0.00,WUHU216HW,2013-04-21 18:31:00,
2013-04-21 13:36:00,67.1,42.5,28.63,SSW,203,22.3,22.3,41,0.00,,,0.00,WUHU216HW,2013-04-21 18:36:00,
2013-04-21 13:41:00,67.2,42.7,28.63,SW,225,19.2,22.3,41,0.00,,,0.00,WUHU216HW,2013-04-21 18:41:00,
2013-04-21 13:46:00,67.2,42.7,28.63,SW,225,12.3,22.3,41,0.00,,,0.00,WUHU216HW,2013-04-21 18:46:00,
2013-04-21 13:51:00,67.6,43.0,28.63,SW,225,19.9,25.0,41,0.00,,,0.00,WUHU216HW,2013-04-21 18:51:00,
2013-04-21 13:56:00,67.4,42.9,28.63,SW,225,11.4,25.0,41,0.00,,,0.00,WUHU216HW,2013-04-21 18:56:00,
2013-04-21 14:01:00,67.1,42.5,28.63,SW,225,18.5,21.4,41,0.00,,,0.00,WUHU216HW,2013-04-21 19:01:00,
2013-04-21 14:06:00,66.9,43.0,28.63,SW,225,19.2,19.2,42,0.00,,,0.00,WUHU216HW,2013-04-21 19:06:00,
2013-04-21 14:11:00,66.5,42.6,28.63,SW,225,17.2,19.2,42,0.00,,,0.00,WUHU216HW,2013-04-21 19:11:00,
2013-04-21 14:16:00,66.0,42.1,28.63,SW,225,8.7,19.2,42,0.00,,,0.00,WUHU216HW,2013-04-21 19:16:00,
2013-04-21 14:21:00,65.8,42.6,28.63,SW,225,11.1,16.7,43,0.00,,,0.00,WUHU216HW,2013-04-21 19:21:00,
2013-04-21 14:26:00,65.8,42.6,28.63,SW,225,16.1,17.2,43,0.00,,,0.00,WUHU216HW,2013-04-21 19:26:00,
2013-04-21 14:31:00,65.4,42.2,28.62,SW,225,15.4,23.0,43,0.00,,,0.00,WUHU216HW,2013-04-21 19:31:00,
2013-04-21 14:36:00,65.3,42.7,28.62,SSW,203,8.0,23.0,44,0.00,,,0.00,WUHU216HW,2013-04-21 19:36:00,
2013-04-21 14:42:00,65.1,41.9,28.62,SSW,203,18.5,18.5,43,0.00,,,0.00,WUHU216HW,2013-04-21 19:42:00,
2013-04-21 14:47:00,65.1,42.5,28.62,SW,225,16.5,18.5,44,0.00,,,0.00,WUHU216HW,2013-04-21 19:47:00,
2013-04-21 14:52:00,65.3,42.1,28.61,SW,225,16.5,16.5,43,0.00,,,0.00,WUHU216HW,2013-04-21 19:52:00,
2013-04-21 14:57:00,65.4,41.7,28.61,SW,225,15.4,19.0,42,0.00,,,0.00,WUHU216HW,2013-04-21 19:57:00,
2013-04-21 15:02:00,65.8,41.4,28.61,SW,225,17.8,19.0,41,0.00,,,0.00,WUHU216HW,2013-04-21 20:02:00,
2013-04-21 15:07:00,65.6,41.2,28.61,SW,225,10.5,18.7,41,0.00,,,0.00,WUHU216HW,2013-04-21 20:07:00,
2013-04-21 15:12:00,65.4,41.1,28.61,SW,225,19.2,19.2,41,0.00,,,0.00,WUHU216HW,2013-04-21 20:12:00,
2013-04-21 15:17:00,65.1,41.3,28.61,SSW,203,18.3,19.2,42,0.00,,,0.00,WUHU216HW,2013-04-21 20:17:00,
2013-04-21 15:22:00,65.1,40.7,28.61,SW,225,20.3,20.3,41,0.00,,,0.00,WUHU216HW,2013-04-21 20:22:00,
2013-04-21 15:27:00,64.9,40.6,28.61,SSW,203,20.1,20.3,41,0.00,,,0.00,WUHU216HW,2013-04-21 20:27:00,
2013-04-21 15:32:00,64.5,40.8,28.61,SW,225,10.0,20.3,42,0.00,,,0.00,WUHU216HW,2013-04-21 20:32:00,
2013-04-21 15:37:00,64.5,40.8,28.60,SW,225,14.3,17.6,42,0.00,,,0.00,WUHU216HW,2013-04-21 20:37:00,
2013-04-21 15:42:00,64.2,40.5,28.60,SW,225,7.1,14.3,42,0.00,,,0.00,WUHU216HW,2013-04-21 20:42:00,
2013-04-21 15:47:00,64.4,40.7,28.60,SW,225,10.0,14.9,42,0.00,,,0.00,WUHU216HW,2013-04-21 20:47:00,
2013-04-21 15:52:00,64.5,41.4,28.60,SW,225,13.6,14.9,43,0.00,,,0.00,WUHU216HW,2013-04-21 20:52:00,
2013-04-21 15:57:00,64.5,41.4,28.61,SW,225,15.6,15.6,43,0.00,,,0.00,WUHU216HW,2013-04-21 20:57:00,
2013-04-21 16:02:00,64.5,40.8,28.60,SW,225,14.7,16.7,42,0.00,,,0.00,WUHU216HW,2013-04-21 21:02:00,
2013-04-21 16:07:00,64.9,41.1,28.60,SW,225,11.8,16.7,42,0.00,,,0.00,WUHU216HW,2013-04-21 21:07:00,
2013-04-21 16:12:00,65.1,41.3,28.60,SW,225,14.7,14.7,43,0.00,,,0.00,WUHU216HW,2013-04-21 21:12:00,
2013-04-21 16:17:00,66.0,41.5,28.60,WSW,248,17.2,17.8,41,0.00,,,0.00,WUHU216HW,2013-04-21 21:17:00,
2013-04-21 16:22:00,66.0,42.1,28.60,WSW,248,21.9,21.9,42,0.00,,,0.00,WUHU216HW,2013-04-21 21:22:00,
2013-04-21 16:27:00,66.3,41.5,28.60,SW,225,13.4,21.9,41,0.00,,,0.00,WUHU216HW,2013-04-21 21:27:00,
2013-04-21 16:32:00,66.5,41.5,28.60,SSW,203,16.3,18.5,40,0.00,,,0.00,WUHU216HW,2013-04-21 21:32:00,
2013-04-21 16:37:00,66.3,41.3,28.60,SW,225,19.2,21.2,40,0.00,,,0.00,WUHU216HW,2013-04-21 21:37:00,
2013-04-21 16:43:00,66.0,41.0,28.60,SW,225,12.0,21.2,40,0.00,,,0.00,WUHU216HW,2013-04-21 21:43:00,
2013-04-21 16:48:00,66.0,41.0,28.60,SW,225,14.3,16.1,40,0.00,,,0.00,WUHU216HW,2013-04-21 21:48:00,
2013-04-21 16:53:00,65.8,41.4,28.60,SW,225,13.6,14.3,41,0.00,,,0.00,WUHU216HW,2013-04-21 21:53:00,
2013-04-21 16:58:00,65.8,41.4,28.60,SW,225,18.3,18.3,41,0.00,,,0.00,WUHU216HW,2013-04-21 21:58:00,
2013-04-21 17:03:00,65.6,41.2,28.60,SSW,203,11.8,18.3,41,0.00,,,0.00,WUHU216HW,2013-04-21 22:03:00,
2013-04-21 17:08:00,65.8,41.4,28.60,SW,225,14.0,18.3,41,0.00,,,0.00,WUHU216HW,2013-04-21 22:08:00,
2013-04-21 17:13:00,65.8,41.4,28.60,SW,225,7.1,14.0,41,0.00,,,0.00,WUHU216HW,2013-04-21 22:13:00,
2013-04-21 17:18:00,65.8,41.4,28.60,SSW,203,14.0,14.0,41,0.00,,,0.00,WUHU216HW,2013-04-21 22:18:00,
2013-04-21 17:23:00,65.8,41.4,28.60,SW,225,14.3,17.8,41,0.00,,,0.00,WUHU216HW,2013-04-21 22:23:00,
2013-04-21 17:28:00,65.4,42.2,28.60,SW,225,9.6,17.8,43,0.00,,,0.00,WUHU216HW,2013-04-21 22:28:00,
2013-04-21 17:33:00,65.3,42.1,28.59,SW,225,7.1,14.7,43,0.00,,,0.00,WUHU216HW,2013-04-21 22:33:00,
2013-04-21 17:38:00,65.3,42.1,28.60,SW,225,20.3,20.3,43,0.00,,,0.00,WUHU216HW,2013-04-21 22:38:00,
2013-04-21 17:43:00,65.4,42.2,28.60,SW,225,11.4,20.3,43,0.00,,,0.00,WUHU216HW,2013-04-21 22:43:00,
2013-04-21 17:48:00,65.1,41.9,28.59,SW,225,11.4,14.9,43,0.00,,,0.00,WUHU216HW,2013-04-21 22:48:00,
2013-04-21 17:53:00,64.9,41.7,28.59,SW,225,12.0,14.9,43,0.00,,,0.00,WUHU216HW,2013-04-21 22:53:00,
2013-04-21 17:58:00,64.7,42.1,28.59,SW,225,8.5,13.4,44,0.00,,,0.00,WUHU216HW,2013-04-21 22:58:00,
2013-04-21 18:03:00,64.5,42.0,28.59,SW,225,8.0,13.4,44,0.00,,,0.00,WUHU216HW,2013-04-21 23:03:00,
2013-04-21 18:08:00,64.4,42.4,28.59,SSW,203,5.3,9.8,45,0.00,,,0.00,WUHU216HW,2013-04-21 23:08:00,
2013-04-21 18:13:00,64.0,42.6,28.59,SW,225,5.8,10.2,46,0.00,,,0.00,WUHU216HW,2013-04-21 23:13:00,
2013-04-21 18:18:00,63.6,42.3,28.59,SSW,203,5.5,10.2,46,0.00,,,0.00,WUHU216HW,2013-04-21 23:18:00,
2013-04-21 18:23:00,63.5,42.7,28.59,SSW,203,9.6,9.6,47,0.00,,,0.00,WUHU216HW,2013-04-21 23:23:00,
2013-04-21 18:28:00,63.1,42.4,28.59,South,180,6.9,9.6,47,0.00,,,0.00,WUHU216HW,2013-04-21 23:28:00,
2013-04-21 18:33:00,62.9,42.8,28.58,South,180,10.5,15.8,48,0.00,,,0.00,WUHU216HW,2013-04-21 23:33:00,
2013-04-21 18:38:00,62.9,42.8,28.58,SW,225,10.0,15.8,48,0.00,,,0.00,WUHU216HW,2013-04-21 23:38:00,
2013-04-21 18:43:00,63.1,43.6,28.59,SW,225,10.2,13.1,49,0.00,,,0.00,WUHU216HW,2013-04-21 23:43:00,
2013-04-21 18:48:00,62.4,44.0,28.59,SW,225,0.0,12.0,51,0.00,,,0.00,WUHU216HW,2013-04-21 23:48:00,
2013-04-21 18:53:00,62.0,44.1,28.60,SW,225,0.0,4.4,52,0.00,,,0.00,WUHU216HW,2013-04-21 23:53:00,
2013-04-21 18:59:00,61.5,43.7,28.60,SW,225,0.0,0.0,52,0.00,,,0.00,WUHU216HW,2013-04-21 23:59:00,
2013-04-21 19:04:00,60.9,43.7,28.60,SW,225,0.0,0.0,53,0.00,,,0.00,WUHU216HW,2013-04-22 00:04:00,
2013-04-21 19:09:00,60.6,43.3,28.60,SSW,203,0.0,4.0,53,0.00,,,0.00,WUHU216HW,2013-04-22 00:09:00,
2013-04-21 19:14:00,60.4,43.1,28.59,SSW,203,0.0,4.0,53,0.00,,,0.00,WUHU216HW,2013-04-22 00:14:00,
2013-04-21 19:19:00,60.4,43.1,28.59,SW,225,0.0,5.3,53,0.00,,,0.00,WUHU216HW,2013-04-22 00:19:00,
2013-04-21 19:24:00,60.4,43.1,28.60,SSW,203,0.0,5.3,53,0.00,,,0.00,WUHU216HW,2013-04-22 00:24:00,
2013-04-21 19:29:00,60.4,42.7,28.59,SSW,203,0.0,0.0,52,0.00,,,0.00,WUHU216HW,2013-04-22 00:29:00,
2013-04-21 19:34:00,60.6,43.3,28.59,SSW,203,5.8,6.9,53,0.00,,,0.00,WUHU216HW,2013-04-22 00:34:00,
2013-04-21 19:39:00,60.6,43.3,28.59,South,180,10.5,10.5,53,0.00,,,0.00,WUHU216HW,2013-04-22 00:39:00,
2013-04-21 19:44:00,60.6,43.3,28.59,SSW,203,6.9,10.5,53,0.00,,,0.00,WUHU216HW,2013-04-22 00:44:00,
2013-04-21 19:49:00,60.6,43.3,28.60,SW,225,0.0,8.0,53,0.00,,,0.00,WUHU216HW,2013-04-22 00:49:00,
2013-04-21 19:54:00,60.4,43.6,28.62,NW,315,1.3,5.1,54,0.00,,,0.00,WUHU216HW,2013-04-22 00:54:00,
2013-04-21 19:59:00,60.0,44.2,28.62,North,0,9.1,14.7,56,0.00,,,0.00,WUHU216HW,2013-04-22 00:59:00,
2013-04-21 20:04:00,59.1,45.3,28.62,North,0,12.5,18.7,60,0.00,,,0.00,WUHU216HW,2013-04-22 01:04:00,
2013-04-21 20:09:00,57.3,45.6,28.63,NNW,338,7.6,18.7,65,0.00,,,0.00,WUHU216HW,2013-04-22 01:09:00,
2013-04-21 20:14:00,55.9,45.9,28.64,NNW,338,16.5,17.4,69,0.02,,,0.02,WUHU216HW,2013-04-22 01:14:00,
2013-04-21 20:19:00,55.0,46.1,28.63,North,0,14.5,16.5,72,0.04,,,0.04,WUHU216HW,2013-04-22 01:19:00,
2013-04-21 20:25:00,54.3,46.5,28.66,NNE,23,11.1,16.5,75,0.08,,,0.08,WUHU216HW,2013-04-22 01:25:00,
2013-04-21 20:30:00,53.4,46.0,28.66,North,0,14.3,14.3,76,0.12,,,0.10,WUHU216HW,2013-04-22 01:30:00,
2013-04-21 20:35:00,52.8,45.5,28.67,NNW,338,0.0,14.3,76,0.12,,,0.12,WUHU216HW,2013-04-22 01:35:00,
2013-04-21 20:40:00,52.7,45.6,28.68,NW,315,0.0,14.3,77,0.16,,,0.16,WUHU216HW,2013-04-22 01:40:00,
2013-04-21 20:45:00,52.5,45.5,28.68,WSW,248,0.0,1.7,77,0.16,,,0.16,WUHU216HW,2013-04-22 01:45:00,
2013-04-21 20:50:00,52.3,45.3,28.68,WNW,293,0.0,1.7,77,0.18,,,0.18,WUHU216HW,2013-04-22 01:50:00,
2013-04-21 20:55:00,52.3,45.6,28.66,WNW,293,0.0,0.0,78,0.18,,,0.18,WUHU216HW,2013-04-22 01:55:00,
2013-04-21 21:00:00,51.9,46.0,28.66,NE,45,6.0,7.3,80,0.20,,,0.20,WUHU216HW,2013-04-22 02:00:00,
2013-04-21 21:05:00,51.6,45.6,28.66,East,90,0.0,7.3,80,0.22,,,0.22,WUHU216HW,2013-04-22 02:05:00,
2013-04-21 21:10:00,51.6,45.6,28.67,East,90,0.0,6.0,80,0.22,,,0.22,WUHU216HW,2013-04-22 02:10:00,
2013-04-21 21:15:00,51.4,45.5,28.67,East,90,1.3,1.3,80,0.20,,,0.22,WUHU216HW,2013-04-22 02:15:00,
2013-04-21 21:20:00,51.2,45.3,28.67,SE,135,4.0,4.0,80,0.18,,,0.22,WUHU216HW,2013-04-22 02:20:00,
2013-04-21 21:25:00,51.2,45.3,28.68,SE,135,0.0,4.0,80,0.12,,,0.22,WUHU216HW,2013-04-22 02:25:00,
2013-04-21 21:30:00,51.0,45.1,28.68,SE,135,0.0,1.5,80,0.10,,,0.22,WUHU216HW,2013-04-22 02:30:00,
2013-04-21 21:35:00,51.0,45.1,28.67,SSE,158,4.6,4.6,80,0.08,,,0.22,WUHU216HW,2013-04-22 02:35:00,
2013-04-21 21:40:00,50.9,44.9,28.67,SSE,158,0.0,4.6,80,0.06,,,0.22,WUHU216HW,2013-04-22 02:40:00,
2013-04-21 21:45:00,50.7,44.7,28.68,SSE,158,4.6,4.6,80,0.04,,,0.22,WUHU216HW,2013-04-22 02:45:00,
2013-04-21 21:50:00,50.7,44.7,28.68,SSE,158,0.0,4.6,80,0.04,,,0.22,WUHU216HW,2013-04-22 02:50:00,
2013-04-21 21:55:00,50.7,44.7,28.67,SSE,158,2.9,4.6,80,0.02,,,0.22,WUHU216HW,2013-04-22 02:55:00,
2013-04-21 22:00:00,50.7,44.7,28.68,ESE,113,0.0,2.9,80,0.02,,,0.22,WUHU216HW,2013-04-22 03:00:00,
2013-04-21 22:05:00,50.7,44.7,28.69,ESE,113,0.0,0.0,80,0.00,,,0.22,WUHU216HW,2013-04-22 03:05:00,
2013-04-21 22:10:00,50.5,44.6,28.69,ESE,113,0.0,0.0,80,0.00,,,0.22,WUHU216HW,2013-04-22 03:10:00,
2013-04-21 22:15:00,50.5,44.9,28.69,ESE,113,0.0,0.0,81,0.00,,,0.22,WUHU216HW,2013-04-22 03:15:00,
2013-04-21 22:20:00,50.3,44.7,28.69,ESE,113,0.0,0.0,81,0.00,,,0.22,WUHU216HW,2013-04-22 03:20:00,
2013-04-21 22:25:00,50.1,44.5,28.69,ESE,113,0.0,0.0,81,0.00,,,0.22,WUHU216HW,2013-04-22 03:25:00,
2013-04-21 22:30:00,49.8,44.1,28.69,ESE,113,0.0,0.0,81,0.00,,,0.22,WUHU216HW,2013-04-22 03:30:00,
2013-04-21 22:35:00,49.8,44.1,28.70,ESE,113,0.0,0.0,81,0.00,,,0.22,WUHU216HW,2013-04-22 03:35:00,
2013-04-21 22:41:00,49.8,44.4,28.70,ESE,113,0.0,0.0,82,0.00,,,0.22,WUHU216HW,2013-04-22 03:41:00,
2013-04-21 22:46:00,49.8,44.4,28.70,ESE,113,0.0,0.0,82,0.00,,,0.22,WUHU216HW,2013-04-22 03:46:00,
2013-04-21 22:51:00,49.6,44.3,28.70,ESE,113,0.0,0.0,82,0.00,,,0.22,WUHU216HW,2013-04-22 03:51:00,
2013-04-21 22:56:00,49.6,44.3,28.70,ESE,113,0.0,0.0,82,0.00,,,0.22,WUHU216HW,2013-04-22 03:56:00,
2013-04-21 23:01:00,49.6,44.3,28.70,ESE,113,0.0,0.0,82,0.00,,,0.22,WUHU216HW,2013-04-22 04:01:00,
2013-04-21 23:03:00,49.2,43.9,28.70,SE,135,0.0,0.0,82,0.00,,,0.22,WUHU216HW,2013-04-22 04:03:00,
2013-04-21 23:08:00,49.2,43.9,28.70,SE,135,0.0,0.0,82,0.00,,,0.22,WUHU216HW,2013-04-22 04:08:00,
2013-04-21 23:14:00,49.2,43.9,28.71,SE,135,0.0,0.0,82,0.00,,,0.22,WUHU216HW,2013-04-22 04:14:00,
2013-04-21 23:19:00,49.1,43.7,28.70,SE,135,0.0,0.0,82,0.00,,,0.22,WUHU216HW,2013-04-22 04:19:00,
2013-04-21 23:24:00,49.1,43.7,28.70,SE,135,0.0,0.0,82,0.00,,,0.22,WUHU216HW,2013-04-22 04:24:00,
2013-04-21 23:29:00,48.9,43.9,28.70,SE,135,0.0,0.0,83,0.00,,,0.22,WUHU216HW,2013-04-22 04:29:00,
2013-04-21 23:34:00,48.5,43.5,28.70,SE,135,0.0,0.0,83,0.00,,,0.22,WUHU216HW,2013-04-22 04:34:00,
2013-04-21 23:39:00,48.3,43.3,28.70,SE,135,0.0,0.0,83,0.00,,,0.22,WUHU216HW,2013-04-22 04:39:00,
2013-04-21 23:44:00,48.3,43.0,28.70,SE,135,0.0,0.0,82,0.00,,,0.22,WUHU216HW,2013-04-22 04:44:00,
2013-04-21 23:49:00,48.2,43.2,28.70,SE,135,0.0,0.0,83,0.00,,,0.22,WUHU216HW,2013-04-22 04:49:00,
2013-04-21 23:54:00,48.0,43.0,28.70,SE,135,0.0,0.0,83,0.00,,,0.22,WUHU216HW,2013-04-22 04:54:00,
2013-04-21 23:59:00,48.0,43.0,28.70,SE,135,0.0,0.0,83,0.00,,,0.22,WUHU216HW,2013-04-22 04:59:00,